Tracking 20093 objects as of 16-Dec-2019
HD Live streaming from Space Station
objects crossing your sky now

COSMOS 2251 DEB

Track COSMOS 2251 DEB now!
10-day predictions


NORAD ID: 35771
Int'l Code: 1993-036ARR
Perigee: 744.1 km
Apogee: 1,212.1 km
Inclination: 74.2 °
Period: 104.5 minutes
Semi major axis: 7349 km
RCS: 0.0095 m2 (small)
Launch date: June 16, 1993
Source: Commonwealth of Independent States (former USSR) (CIS)
Launch site: PLESETSK MISSILE AND SPACE COMPLEX (PKMTR)

Note: This is SATELLITE DEBRIS
aabbcc
Your satellite tracking list
Your tracking list is empty




NASA's NSSDC Master Catalog

Two Line Element Set (TLE):
1 35771U 93036ARR 19349.11252677  .00000395  00000-0  28460-3 0  9991
2 35771  74.1835  38.1785 0318376 186.2340 173.4784 13.78003218532622
Source of the keplerian elements: AFSPC